#timestamp,LO_Frequency,Hit 
1502215215.5,286046993.8,N
1502215235.3,286046992.8,N
1502215255.2,286046992.5,N
1502215275.9,286046994.1,N
1502215295.7,286046994.3,N
1502215315.5,286046994.5,N
1502215335.4,286046995.6,N
1502215355.2,286046995.6,N
1502215375.0,286046997.8,N
1502215375.9,286046997.8,N
1502215395.8,286046995.4,N
1502215415.6,286046993.8,N
1502215435.4,286046993.7,N
1502215455.3,286046996.0,N
1502215475.1,286046993.8,N
1502215476.0,286046993.8,N
1502215495.8,286046995.0,N
1502215515.7,286046995.6,N
1502215535.5,286046997.2,N
1502215555.3,286046997.8,N
1502215575.1,286046995.3,N
1502215595.9,286046998.0,N
1502215615.7,286046999.6,N
1502215635.5,286046997.2,N
1502215655.4,286046994.9,N
1502215675.2,286046999.5,N
1502215695.0,286046999.3,N
1502215695.9,286046999.3,N
1502215715.8,286046996.6,N
1502215735.6,286046995.3,N
1502215755.4,286046999.2,N
1502215775.3,286046998.4,N
1502215795.1,286046997.7,N
1502215796.0,286046997.7,N
1502215815.8,286046996.9,N
1502215835.6,286046997.7,N
1502215855.5,286046997.1,N
1502215875.3,286046997.8,N
1502215895.1,286046997.1,N
1502215915.9,286046998.0,N
1502215935.7,286046996.8,N
1502215955.5,286046996.5,N
1502215975.4,286046998.1,N
1502215995.2,286047000.9,N
1502216015.0,286047004.0,N
1502216015.9,286047004.0,N
1502216035.8,286047001.3,N
1502216055.6,286047002.1,N
1502216075.4,286046998.9,N
1502216095.2,286046998.1,N
1502216115.1,286047002.3,N
1502216116.0,286047002.3,N
1502216135.8,286047002.5,N
1502216155.6,286046998.5,N
1502216175.5,286046998.1,N
1502216195.3,286047002.2,N
1502216215.1,286046999.9,N
1502216235.9,286046999.3,N
1502216255.7,286046998.5,N
1502216275.5,286047001.1,N
1502216295.4,286046998.1,N
1502216315.2,286046998.5,N
1502216335.0,286047002.2,N
1502216335.9,286047002.2,N
1502216355.8,286047003.5,N
1502216375.6,286047004.0,N
1502216395.4,286047000.9,N
1502216415.2,286047000.1,N
1502216435.1,286047000.1,N
1502216436.0,286047000.1,N
1502216455.8,286047002.2,N
1502216475.6,286047003.8,N
1502216495.5,286047002.1,N
1502216515.3,286047004.0,N
1502216535.1,286047003.6,N
1502216555.9,286047001.3,N
1502216575.7,286047002.4,N
1502216595.5,286047002.0,N
1502216615.4,286047001.3,N
1502216635.2,286047003.4,N
1502216655.0,286047002.5,N
1502216655.9,286047002.5,N
1502216675.8,286047002.5,N
1502216695.6,286047002.8,N
1502216715.4,286047000.2,N
1502216735.2,286047001.5,N
1502216755.1,286047002.5,N
1502216756.0,286047002.5,N
1502216775.8,286046999.0,N
1502216795.6,286046999.0,N
1502216815.5,286047001.7,N
1502216835.3,286047005.6,N
1502216855.1,286047005.3,N
1502216875.9,286047001.5,N
1502216895.7,286047002.0,N
1502216915.5,286047004.2,N
1502216935.4,286047003.7,N
1502216955.2,286047003.2,N
1502216975.0,286047002.2,N
1502216975.9,286047002.2,N
1502216995.8,286046999.7,N
1502217015.6,286047004.1,N
1502217035.4,286047003.8,N
1502217055.2,286047005.3,N
1502217075.1,286047003.3,N
1502217076.0,286047003.3,N
1502217095.8,286047005.6,N
1502217115.6,286047003.0,N
1502217135.5,286047005.6,N
1502217155.3,286047005.8,N
1502217175.1,286047006.4,N
1502217195.9,286047008.1,N
1502217215.7,286047006.9,N
1502217235.5,286047006.2,N
1502217255.4,286047007.0,N
1502217275.2,286047004.7,N
1502217295.0,286047007.5,N
1502217295.9,286047007.5,N
1502217315.8,286047005.5,N
1502217335.6,286047003.3,N
1502217355.4,286047007.5,N
1502217375.2,286047006.1,N
1502217395.1,286047006.1,N
1502217396.0,286047006.1,N
1502217415.8,286047004.6,N
1502217435.6,286047006.6,N
1502217455.5,286047008.1,N
1502217475.3,286047007.4,N
1502217495.1,286047004.9,N
1502217515.9,286047007.1,N
1502217535.7,286047005.6,N
1502217555.5,286047005.8,N
1502217575.4,286047007.0,N
1502217595.2,286047004.5,N
1502217615.0,286047008.2,N
1502217615.9,286047008.2,N
1502217635.8,286047006.5,N
1502217655.6,286047008.9,N
1502217675.4,286047006.8,N
1502217695.2,286047007.4,N
1502217715.1,286047006.9,N
1502217716.0,286047006.9,N
1502217735.8,286047006.2,N
1502217755.6,286047006.2,N
1502217775.5,286047008.4,N
1502217795.3,286047008.4,N
1502217815.1,286047009.0,N
1502217835.9,286047007.7,N
1502217855.7,286047007.7,N
1502217875.5,286047010.4,N
1502217895.4,286047011.5,N
1502217915.2,286047009.6,N
1502217935.0,286047010.1,N
1502217935.9,286047010.1,N
1502217955.8,286047009.0,N
1502217975.6,286047007.9,N
1502217995.4,286047009.7,N
1502218015.2,286047011.8,N
1502218035.1,286047011.4,N
1502218036.0,286047011.4,N
1502218055.8,286047011.7,N
1502218075.6,286047012.5,N
1502218095.5,286047011.4,N
1502218115.3,286047012.4,N
1502218135.1,286047009.3,N
1502218155.9,286047010.2,N
1502218175.7,286047010.0,N
1502218195.5,286047009.9,N
1502218215.4,286047011.6,N
1502218235.2,286047011.7,N
1502218255.0,286047013.7,N
1502218255.9,286047013.7,N
1502218275.8,286047013.9,N
1502218295.6,286047009.3,N
1502218315.4,286047011.2,N
1502218335.2,286047011.6,N
1502218355.1,286047012.1,N
1502218356.0,286047012.1,N
1502218375.8,286047012.0,N
1502218395.6,286047012.4,N
1502218415.5,286047012.3,N
1502218435.8,286047012.0,N
1502218455.6,286047009.3,N
1502218475.5,286047011.5,N
1502218495.3,286047011.0,N
1502218515.1,286047014.9,N
1502218535.9,286047015.2,N
1502218555.7,286047012.8,N
1502218575.5,286047013.3,N
1502218595.4,286047015.5,N
1502218615.2,286047014.3,N
1502218635.0,286047017.2,N
1502218635.9,286047017.2,N
1502218655.7,286047014.9,N
1502218675.6,286047012.5,N
1502218695.4,286047013.1,N
1502218715.2,286047012.7,N
1502218735.1,286047013.3,N
1502218736.0,286047013.3,N
1502218755.8,286047013.1,N
1502218775.6,286047015.1,N
1502218795.5,286047015.5,N
